Regional Weather Roundup
Issued by NWS

Home | Current Version | Previous Version | Graphics & Text | Print | Product List | Glossary On
Versions: 1 2 3 4 5 6 7 8 9 10 11 12 13 14 15 16 17 18 19 20 21 22 23 24 25 26 27 28 29 30 31 32 33 34 35 36 37 38 39 40 41 42 43 44 45 46 47 48 49 50
000
ASUS43 KIND 182300
RWRIN

WEATHER ROUNDUP FOR INDIANA
NATIONAL WEATHER SERVICE INDIANAPOLIS IN
700 PM EDT FRI AUG 18 2017

NOTE: "FAIR" INDICATES FEW OR NO CLOUDS BELOW 12,000 FEET WITH NO
SIGNIFICANT WEATHER AND/OR OBSTRUCTIONS TO VISIBILITY.

* - STATION DOES NOT REPORT WEATHER SUCH AS PRECIPITATION OR FOG.

+ - STATION NOT QUALITY CONTROLLED BY THE NATIONAL WEATHER SERVICE.
    USE DATA WITH CAUTION...ESPECIALLY DEWPOINT AND RELATIVE
    HUMIDITY OBSERVATIONS.

INZ001>003-010>013-019-020-190000-
NORTHWEST INDIANA

CITY           SKY/WX    TMP DP  RH WIND       PRES   REMARKS
GARY /AIRPORT/ SUNNY     82  55  39 W12       29.85S
MICHIGAN CITY+ SUNNY     79  59  50 W5        29.85S
MONTICELLO +   SUNNY     80  62  54 W9        29.87S
RENSSELAER +   SUNNY     79  55  44 SW9       29.87F

$$

LMZ046-743>745-190000-
SOUTHERN LAKE MICHIGAN

STATION/POSITION TIME  TEMP    WIND        PRES    WAVE
                       AIR SEA DIR/SP/G            HT
                 (UTC) (F)     (DEG/KT/KT) (MB)    (FT)
BURNS HARBOR     2240   79     240/  7/  9 1010.8F
MICHIGAN CITY    2230   78     340/  1/  1   N/A
5NW MICH CITY    2250   75 76   60/  2/  4   N/A     2

$$

INZ004-005-014>016-021>024-190000-
NORTH CENTRAL INDIANA

CITY           SKY/WX    TMP DP  RH WIND       PRES   REMARKS
ELKHART        MOSUNNY   77  63  61 W6        29.86S
GOSHEN         MOSUNNY   78  60  53 W12       29.86S
PERU/GRISSOM   SUNNY     78  64  62 W10       29.88S
SOUTH BEND     SUNNY     78  65  63 NW7       29.86F

$$

INZ006>009-017-018-025>027-190000-
NORTHEAST INDIANA

CITY           SKY/WX    TMP DP  RH WIND       PRES   REMARKS
FORT WAYNE     MOSUNNY   78  62  57 W15       29.87S
KENDALLVILLE + PTSUNNY   76  63  64 W12       29.88R

$$

INZ028-029-035-036-043>045-051>053-190000-
WEST CENTRAL INDIANA

CITY           SKY/WX    TMP DP  RH WIND       PRES   REMARKS
LAFAYETTE      SUNNY     81  63  54 W6        29.87F
TERRE HAUTE    SUNNY     83  62  49 SW7       29.91S

$$

INZ030>032-037>040-046>048-054>057-064-065-190000-
CENTRAL INDIANA

CITY           SKY/WX    TMP DP  RH WIND       PRES   REMARKS
COLUMBUS       MOSUNNY   82  55  39 W6        29.91S
GREENWOOD *+   SUNNY     81  60  48 W6        29.91S
INDIANAPOLIS   MOSUNNY   83  61  47 W14       29.89S
-EAGLE CREEK   SUNNY     82  61  48 W12       29.90R
KOKOMO +       SUNNY     79  64  60 W12       29.89F
MT COMFORT *+  SUNNY     82  61  47 W8        29.90S
SHELBYVILLE    SUNNY     82  62  50 W8        29.89S

$$

INZ033-034-041-042-049-050-058-059-190000-
EAST CENTRAL INDIANA

CITY           SKY/WX    TMP DP  RH WIND       PRES   REMARKS
MUNCIE         SUNNY     81  63  54 W9        29.89S
RICHMOND +     SUNNY     77  64  65 W9        29.91F

$$

INZ060-061-067>069-081>083-085>088-190000-
SOUTHWEST INDIANA

CITY           SKY/WX    TMP DP  RH WIND       PRES   REMARKS
EVANSVILLE     SUNNY     84  63  49 W8        29.94S
HUNTINGBURG +  SUNNY     84  66  54 W7        29.94S

$$

INZ062-063-066-070>080-084-089>092-190000-
SOUTH CENTRAL AND SOUTHEAST INDIANA

CITY           SKY/WX    TMP DP  RH WIND       PRES   REMARKS
BLOOMINGTON    MOSUNNY   82  61  48 W7        29.92S
MADISON *+     SUNNY     82  61  47 W7        29.94S
SEYMOUR +      SUNNY     84  63  48 W8        29.91S

$$





USA.gov is the U.S. government's official web portal to all federal, state and local government web resources and services.